owner,sensor,date,latitude,longitude,vertical_datum,wind_speed,wind_to_direction,wind_speed_of_gust,qcFlag 
WAVCIS,ioos:station:WAVCIS:CSI06:1,2011-03-01T00:00:00Z,28.8667,-90.4833,10.0,7.78,203.0,,'11111222,11111222,99999999' 
WAVCIS,ioos:station:WAVCIS:CSI06:1,2011-03-01T01:00:00Z,28.8667,-90.4833,10.0,7.33,217.0,,'11111222,11111222,99999999' 
WAVCIS,ioos:station:WAVCIS:CSI06:1,2011-03-01T02:00:00Z,28.8667,-90.4833,10.0,6.624,244.0,,'11111222,11111222,99999999' 
WAVCIS,ioos:station:WAVCIS:CSI06:1,2011-03-01T03:00:00Z,28.8667,-90.4833,10.0,7.3,264.0,,'11111222,11111222,99999999' 
WAVCIS,ioos:station:WAVCIS:CSI06:1,2011-03-01T04:00:00Z,28.8667,-90.4833,10.0,6.108,293.0,,'11111222,11111222,99999999' 
WAVCIS,ioos:station:WAVCIS:CSI06:1,2011-03-01T05:00:00Z,28.8667,-90.4833,10.0,5.83,320.0,,'11111222,11111222,99999999' 
WAVCIS,ioos:station:WAVCIS:CSI06:1,2011-03-01T06:00:00Z,28.8667,-90.4833,10.0,9.68,12.0,,'11111222,11111222,99999999' 
WAVCIS,ioos:station:WAVCIS:CSI06:1,2011-03-01T07:00:00Z,28.8667,-90.4833,10.0,12.94,15.0,,'11111222,11111222,99999999' 
WAVCIS,ioos:station:WAVCIS:CSI06:1,2011-03-01T08:00:00Z,28.8667,-90.4833,10.0,12.38,19.0,,'11111222,11111222,99999999' 
WAVCIS,ioos:station:WAVCIS:CSI06:1,2011-03-01T09:00:00Z,28.8667,-90.4833,10.0,12.18,22.0,,'11111222,11111222,99999999' 
WAVCIS,ioos:station:WAVCIS:CSI06:1,2011-03-01T10:00:00Z,28.8667,-90.4833,10.0,11.76,20.0,,'11111222,11111222,99999999' 
WAVCIS,ioos:station:WAVCIS:CSI06:1,2011-03-01T11:00:00Z,28.8667,-90.4833,10.0,11.43,20.0,,'11111222,11111222,99999999' 
WAVCIS,ioos:station:WAVCIS:CSI06:1,2011-03-01T12:00:00Z,28.8667,-90.4833,10.0,11.14,19.0,,'11111222,11111222,99999999' 
WAVCIS,ioos:station:WAVCIS:CSI06:1,2011-03-01T13:00:00Z,28.8667,-90.4833,10.0,11.31,32.0,,'11111222,11111222,99999999' 
WAVCIS,ioos:station:WAVCIS:CSI06:1,2011-03-01T14:00:00Z,28.8667,-90.4833,10.0,11.0,32.0,,'11111222,11111222,99999999' 
WAVCIS,ioos:station:WAVCIS:CSI06:1,2011-03-01T15:00:00Z,28.8667,-90.4833,10.0,9.85,29.0,,'11111222,11111222,99999999' 
WAVCIS,ioos:station:WAVCIS:CSI06:1,2011-03-01T16:00:00Z,28.8667,-90.4833,10.0,8.81,35.0,,'11111222,11111222,99999999' 
WAVCIS,ioos:station:WAVCIS:CSI06:1,2011-03-01T17:00:00Z,28.8667,-90.4833,10.0,7.21,42.0,,'11111222,11111222,99999999' 
WAVCIS,ioos:station:WAVCIS:CSI06:1,2011-03-01T18:00:00Z,28.8667,-90.4833,10.0,5.707,41.0,,'11111222,11111222,99999999' 
WAVCIS,ioos:station:WAVCIS:CSI06:1,2011-03-01T19:00:00Z,28.8667,-90.4833,10.0,5.025,46.0,,'11111222,11111222,99999999' 
WAVCIS,ioos:station:WAVCIS:CSI06:1,2011-03-01T20:00:00Z,28.8667,-90.4833,10.0,5.342,62.0,,'11111222,11111222,99999999' 
WAVCIS,ioos:station:WAVCIS:CSI06:1,2011-03-01T21:00:00Z,28.8667,-90.4833,10.0,4.948,65.0,,'11111222,11111222,99999999' 
WAVCIS,ioos:station:WAVCIS:CSI06:1,2011-03-01T22:00:00Z,28.8667,-90.4833,10.0,4.173,77.0,,'11111222,11111222,99999999' 
WAVCIS,ioos:station:WAVCIS:CSI06:1,2011-03-01T23:00:00Z,28.8667,-90.4833,10.0,4.941,85.0,,'11111222,11111222,99999999' 
WAVCIS,ioos:station:WAVCIS:CSI06:1,2011-03-02T00:00:00Z,28.8667,-90.4833,10.0,5.338,89.0,,'11111222,11111222,99999999' 
WAVCIS,ioos:station:WAVCIS:CSI06:1,2011-03-02T01:00:00Z,28.8667,-90.4833,10.0,6.59,79.0,,'11111222,11111222,99999999' 
WAVCIS,ioos:station:WAVCIS:CSI06:1,2011-03-02T02:00:00Z,28.8667,-90.4833,10.0,7.47,64.0,,'11111222,11111222,99999999' 
WAVCIS,ioos:station:WAVCIS:CSI06:1,2011-03-02T03:00:00Z,28.8667,-90.4833,10.0,6.791,68.0,,'11111222,11111222,99999999' 
WAVCIS,ioos:station:WAVCIS:CSI06:1,2011-03-02T04:00:00Z,28.8667,-90.4833,10.0,6.09,65.0,,'11111222,11111222,99999999' 
WAVCIS,ioos:station:WAVCIS:CSI06:1,2011-03-02T05:00:00Z,28.8667,-90.4833,10.0,6.552,78.0,,'11111222,11111222,99999999' 
WAVCIS,ioos:station:WAVCIS:CSI06:1,2011-03-02T06:00:00Z,28.8667,-90.4833,10.0,6.535,88.0,,'11111222,11111222,99999999' 
WAVCIS,ioos:station:WAVCIS:CSI06:1,2011-03-02T07:00:00Z,28.8667,-90.4833,10.0,5.739,86.0,,'11111222,11111222,99999999' 
WAVCIS,ioos:station:WAVCIS:CSI06:1,2011-03-02T08:00:00Z,28.8667,-90.4833,10.0,4.527,80.0,,'11111222,11111222,99999999' 
WAVCIS,ioos:station:WAVCIS:CSI06:1,2011-03-02T09:00:00Z,28.8667,-90.4833,10.0,5.208,66.0,,'11111222,11111222,99999999' 
WAVCIS,ioos:station:WAVCIS:CSI06:1,2011-03-02T10:00:00Z,28.8667,-90.4833,10.0,6.123,67.0,,'11111222,11111222,99999999' 
WAVCIS,ioos:station:WAVCIS:CSI06:1,2011-03-02T11:00:00Z,28.8667,-90.4833,10.0,7.84,61.0,,'11111222,11111222,99999999' 
WAVCIS,ioos:station:WAVCIS:CSI06:1,2011-03-02T12:00:00Z,28.8667,-90.4833,10.0,7.79,60.0,,'11111222,11111222,99999999' 
WAVCIS,ioos:station:WAVCIS:CSI06:1,2011-03-02T13:00:00Z,28.8667,-90.4833,10.0,7.9,61.0,,'11111222,11111222,99999999' 
WAVCIS,ioos:station:WAVCIS:CSI06:1,2011-03-02T14:00:00Z,28.8667,-90.4833,10.0,9.26,65.0,,'11111222,11111222,99999999' 
WAVCIS,ioos:station:WAVCIS:CSI06:1,2011-03-02T15:00:00Z,28.8667,-90.4833,10.0,9.9,67.0,,'11111222,11111222,99999999' 
WAVCIS,ioos:station:WAVCIS:CSI06:1,2011-03-02T16:00:00Z,28.8667,-90.4833,10.0,8.8,67.0,,'11111222,11111222,99999999' 
WAVCIS,ioos:station:WAVCIS:CSI06:1,2011-03-02T17:00:00Z,28.8667,-90.4833,10.0,8.02,67.0,,'11111222,11111222,99999999' 
WAVCIS,ioos:station:WAVCIS:CSI06:1,2011-03-02T18:00:00Z,28.8667,-90.4833,10.0,7.92,69.0,,'11111222,11111222,99999999' 
WAVCIS,ioos:station:WAVCIS:CSI06:1,2011-03-02T19:00:00Z,28.8667,-90.4833,10.0,7.8,68.0,,'11111222,11111222,99999999' 
WAVCIS,ioos:station:WAVCIS:CSI06:1,2011-03-02T20:00:00Z,28.8667,-90.4833,10.0,8.2,58.0,,'11111222,11111222,99999999' 
WAVCIS,ioos:station:WAVCIS:CSI06:1,2011-03-02T21:00:00Z,28.8667,-90.4833,10.0,8.26,60.0,,'11111222,11111222,99999999' 
WAVCIS,ioos:station:WAVCIS:CSI06:1,2011-03-02T22:00:00Z,28.8667,-90.4833,10.0,7.71,62.0,,'11111222,11111222,99999999' 
WAVCIS,ioos:station:WAVCIS:CSI06:1,2011-03-02T23:00:00Z,28.8667,-90.4833,10.0,8.52,69.0,,'11111222,11111222,99999999' 
WAVCIS,ioos:station:WAVCIS:CSI06:1,2011-03-03T00:00:00Z,28.8667,-90.4833,10.0,9.23,78.0,,'11111222,11111222,99999999' 
WAVCIS,ioos:station:WAVCIS:CSI06:1,2011-03-03T01:00:00Z,28.8667,-90.4833,10.0,10.3,76.0,,'11111222,11111222,99999999' 
WAVCIS,ioos:station:WAVCIS:CSI06:1,2011-03-03T02:00:00Z,28.8667,-90.4833,10.0,10.05,83.0,,'11111222,11111222,99999999' 
WAVCIS,ioos:station:WAVCIS:CSI06:1,2011-03-03T03:00:00Z,28.8667,-90.4833,10.0,9.88,79.0,,'11111222,11111222,99999999' 
WAVCIS,ioos:station:WAVCIS:CSI06:1,2011-03-03T04:00:00Z,28.8667,-90.4833,10.0,8.62,73.0,,'11111222,11111222,99999999' 
WAVCIS,ioos:station:WAVCIS:CSI06:1,2011-03-03T05:00:00Z,28.8667,-90.4833,10.0,8.63,72.0,,'11111222,11111222,99999999' 
WAVCIS,ioos:station:WAVCIS:CSI06:1,2011-03-03T06:00:00Z,28.8667,-90.4833,10.0,8.21,75.0,,'11111222,11111222,99999999' 
WAVCIS,ioos:station:WAVCIS:CSI06:1,2011-03-03T07:00:00Z,28.8667,-90.4833,10.0,8.44,77.0,,'11111222,11111222,99999999' 
WAVCIS,ioos:station:WAVCIS:CSI06:1,2011-03-03T08:00:00Z,28.8667,-90.4833,10.0,8.07,74.0,,'11111222,11111222,99999999' 
WAVCIS,ioos:station:WAVCIS:CSI06:1,2011-03-03T09:00:00Z,28.8667,-90.4833,10.0,7.42,74.0,,'11111222,11111222,99999999' 
WAVCIS,ioos:station:WAVCIS:CSI06:1,2011-03-03T10:00:00Z,28.8667,-90.4833,10.0,7.18,74.0,,'11111222,11111222,99999999' 
WAVCIS,ioos:station:WAVCIS:CSI06:1,2011-03-03T11:00:00Z,28.8667,-90.4833,10.0,7.25,69.0,,'11111222,11111222,99999999' 
WAVCIS,ioos:station:WAVCIS:CSI06:1,2011-03-03T12:00:00Z,28.8667,-90.4833,10.0,7.31,66.0,,'11111222,11111222,99999999' 
WAVCIS,ioos:station:WAVCIS:CSI06:1,2011-03-03T13:00:00Z,28.8667,-90.4833,10.0,8.26,64.0,,'11111222,11111222,99999999' 
WAVCIS,ioos:station:WAVCIS:CSI06:1,2011-03-03T14:00:00Z,28.8667,-90.4833,10.0,8.75,70.0,,'11111222,11111222,99999999' 
WAVCIS,ioos:station:WAVCIS:CSI06:1,2011-03-03T15:00:00Z,28.8667,-90.4833,10.0,8.82,65.0,,'11111222,11111222,99999999' 
WAVCIS,ioos:station:WAVCIS:CSI06:1,2011-03-03T16:00:00Z,28.8667,-90.4833,10.0,9.29,67.0,,'11111222,11111222,99999999' 
WAVCIS,ioos:station:WAVCIS:CSI06:1,2011-03-03T17:00:00Z,28.8667,-90.4833,10.0,9.03,61.0,,'11111222,11111222,99999999' 
WAVCIS,ioos:station:WAVCIS:CSI06:1,2011-03-03T18:00:00Z,28.8667,-90.4833,10.0,8.71,61.0,,'11111222,11111222,99999999' 
WAVCIS,ioos:station:WAVCIS:CSI06:1,2011-03-03T19:00:00Z,28.8667,-90.4833,10.0,8.82,65.0,,'11111222,11111222,99999999' 
WAVCIS,ioos:station:WAVCIS:CSI06:1,2011-03-03T20:00:00Z,28.8667,-90.4833,10.0,8.98,75.0,,'11111222,11111222,99999999' 
WAVCIS,ioos:station:WAVCIS:CSI06:1,2011-03-03T21:00:00Z,28.8667,-90.4833,10.0,8.93,78.0,,'11111222,11111222,99999999' 
WAVCIS,ioos:station:WAVCIS:CSI06:1,2011-03-03T22:00:00Z,28.8667,-90.4833,10.0,10.67,84.0,,'11111222,11111222,99999999' 
WAVCIS,ioos:station:WAVCIS:CSI06:1,2011-03-03T23:00:00Z,28.8667,-90.4833,10.0,10.07,81.0,,'11111222,11111222,99999999' 
WAVCIS,ioos:station:WAVCIS:CSI06:1,2011-03-04T00:00:00Z,28.8667,-90.4833,10.0,11.14,88.0,,'11111222,11111222,99999999' 
WAVCIS,ioos:station:WAVCIS:CSI06:1,2011-03-04T01:00:00Z,28.8667,-90.4833,10.0,9.29,83.0,,'11111222,11111222,99999999' 
WAVCIS,ioos:station:WAVCIS:CSI06:1,2011-03-04T02:00:00Z,28.8667,-90.4833,10.0,9.0,93.0,,'11111222,11111222,99999999' 
WAVCIS,ioos:station:WAVCIS:CSI06:1,2011-03-04T03:00:00Z,28.8667,-90.4833,10.0,10.01,105.0,,'11111222,11111222,99999999' 
WAVCIS,ioos:station:WAVCIS:CSI06:1,2011-03-04T04:00:00Z,28.8667,-90.4833,10.0,10.17,107.0,,'11111222,11111222,99999999' 
WAVCIS,ioos:station:WAVCIS:CSI06:1,2011-03-04T05:00:00Z,28.8667,-90.4833,10.0,9.61,130.0,,'11111222,11111222,99999999' 
WAVCIS,ioos:station:WAVCIS:CSI06:1,2011-03-04T06:00:00Z,28.8667,-90.4833,10.0,7.19,132.0,,'11111222,11111222,99999999' 
WAVCIS,ioos:station:WAVCIS:CSI06:1,2011-03-04T07:00:00Z,28.8667,-90.4833,10.0,8.17,137.0,,'11111222,11111222,99999999' 
WAVCIS,ioos:station:WAVCIS:CSI06:1,2011-03-04T08:00:00Z,28.8667,-90.4833,10.0,7.47,123.0,,'11111222,11111222,99999999' 
WAVCIS,ioos:station:WAVCIS:CSI06:1,2011-03-04T09:00:00Z,28.8667,-90.4833,10.0,8.05,127.0,,'11111222,11111222,99999999' 
WAVCIS,ioos:station:WAVCIS:CSI06:1,2011-03-04T10:00:00Z,28.8667,-90.4833,10.0,7.54,111.0,,'11111222,11111222,99999999' 
WAVCIS,ioos:station:WAVCIS:CSI06:1,2011-03-04T11:00:00Z,28.8667,-90.4833,10.0,8.91,116.0,,'11111222,11111222,99999999' 
WAVCIS,ioos:station:WAVCIS:CSI06:1,2011-03-04T12:00:00Z,28.8667,-90.4833,10.0,9.07,108.0,,'11111222,11111222,99999999' 
WAVCIS,ioos:station:WAVCIS:CSI06:1,2011-03-04T13:00:00Z,28.8667,-90.4833,10.0,9.79,114.0,,'11111222,11111222,99999999' 
WAVCIS,ioos:station:WAVCIS:CSI06:1,2011-03-04T14:00:00Z,28.8667,-90.4833,10.0,9.75,119.0,,'11111222,11111222,99999999' 
WAVCIS,ioos:station:WAVCIS:CSI06:1,2011-03-04T15:00:00Z,28.8667,-90.4833,10.0,10.17,122.0,,'11111222,11111222,99999999' 
WAVCIS,ioos:station:WAVCIS:CSI06:1,2011-03-04T16:00:00Z,28.8667,-90.4833,10.0,7.91,123.0,,'11111222,11111222,99999999' 
WAVCIS,ioos:station:WAVCIS:CSI06:1,2011-03-04T17:00:00Z,28.8667,-90.4833,10.0,7.8,151.0,,'11111222,11111222,99999999' 
WAVCIS,ioos:station:WAVCIS:CSI06:1,2011-03-04T18:00:00Z,28.8667,-90.4833,10.0,7.11,163.0,,'11111222,11111222,99999999' 
WAVCIS,ioos:station:WAVCIS:CSI06:1,2011-03-04T19:00:00Z,28.8667,-90.4833,10.0,5.993,143.0,,'11111222,11111222,99999999' 
WAVCIS,ioos:station:WAVCIS:CSI06:1,2011-03-04T20:00:00Z,28.8667,-90.4833,10.0,7.86,138.0,,'11111222,11111222,99999999' 
WAVCIS,ioos:station:WAVCIS:CSI06:1,2011-03-04T21:00:00Z,28.8667,-90.4833,10.0,6.425,143.0,,'11111222,11111222,99999999' 
WAVCIS,ioos:station:WAVCIS:CSI06:1,2011-03-04T22:00:00Z,28.8667,-90.4833,10.0,8.35,130.0,,'11111222,11111222,99999999' 
WAVCIS,ioos:station:WAVCIS:CSI06:1,2011-03-04T23:00:00Z,28.8667,-90.4833,10.0,8.78,123.0,,'11111222,11111222,99999999' 
WAVCIS,ioos:station:WAVCIS:CSI06:1,2011-03-05T00:00:00Z,28.8667,-90.4833,10.0,6.519,118.0,,'11111222,11111222,99999999' 
WAVCIS,ioos:station:WAVCIS:CSI06:1,2011-03-05T01:00:00Z,28.8667,-90.4833,10.0,9.67,115.0,,'11111222,11111222,99999999' 
WAVCIS,ioos:station:WAVCIS:CSI06:1,2011-03-05T02:00:00Z,28.8667,-90.4833,10.0,10.99,111.0,,'11111222,11111222,99999999' 
WAVCIS,ioos:station:WAVCIS:CSI06:1,2011-03-05T03:00:00Z,28.8667,-90.4833,10.0,10.63,134.0,,'11111222,11111222,99999999' 
WAVCIS,ioos:station:WAVCIS:CSI06:1,2011-03-05T04:00:00Z,28.8667,-90.4833,10.0,11.77,149.0,,'11111222,11111222,99999999' 
WAVCIS,ioos:station:WAVCIS:CSI06:1,2011-03-05T05:00:00Z,28.8667,-90.4833,10.0,9.31,148.0,,'11111222,11111222,99999999' 
WAVCIS,ioos:station:WAVCIS:CSI06:1,2011-03-05T06:00:00Z,28.8667,-90.4833,10.0,7.5,157.0,,'11111222,11111222,99999999' 
WAVCIS,ioos:station:WAVCIS:CSI06:1,2011-03-05T07:00:00Z,28.8667,-90.4833,10.0,7.85,150.0,,'11111222,11111222,99999999' 
WAVCIS,ioos:station:WAVCIS:CSI06:1,2011-03-05T08:00:00Z,28.8667,-90.4833,10.0,7.47,145.0,,'11111222,11111222,99999999' 
WAVCIS,ioos:station:WAVCIS:CSI06:1,2011-03-05T09:00:00Z,28.8667,-90.4833,10.0,8.77,139.0,,'11111222,11111222,99999999' 
WAVCIS,ioos:station:WAVCIS:CSI06:1,2011-03-05T10:00:00Z,28.8667,-90.4833,10.0,8.87,147.0,,'11111222,11111222,99999999' 
WAVCIS,ioos:station:WAVCIS:CSI06:1,2011-03-05T11:00:00Z,28.8667,-90.4833,10.0,8.75,149.0,,'11111222,11111222,99999999' 
WAVCIS,ioos:station:WAVCIS:CSI06:1,2011-03-05T12:00:00Z,28.8667,-90.4833,10.0,9.34,151.0,,'11111222,11111222,99999999' 
WAVCIS,ioos:station:WAVCIS:CSI06:1,2011-03-05T13:00:00Z,28.8667,-90.4833,10.0,9.55,152.0,,'11111222,11111222,99999999' 
WAVCIS,ioos:station:WAVCIS:CSI06:1,2011-03-05T14:00:00Z,28.8667,-90.4833,10.0,8.08,151.0,,'11111222,11111222,99999999' 
WAVCIS,ioos:station:WAVCIS:CSI06:1,2011-03-05T15:00:00Z,28.8667,-90.4833,10.0,8.46,149.0,,'11111222,11111222,99999999' 
WAVCIS,ioos:station:WAVCIS:CSI06:1,2011-03-05T16:00:00Z,28.8667,-90.4833,10.0,8.16,155.0,,'11111222,11111222,99999999' 
WAVCIS,ioos:station:WAVCIS:CSI06:1,2011-03-05T17:00:00Z,28.8667,-90.4833,10.0,7.3,152.0,,'11111222,11111222,99999999' 
WAVCIS,ioos:station:WAVCIS:CSI06:1,2011-03-05T18:00:00Z,28.8667,-90.4833,10.0,8.35,144.0,,'11111222,11111222,99999999' 
WAVCIS,ioos:station:WAVCIS:CSI06:1,2011-03-05T19:00:00Z,28.8667,-90.4833,10.0,8.03,158.0,,'11111222,11111222,99999999' 
WAVCIS,ioos:station:WAVCIS:CSI06:1,2011-03-05T20:00:00Z,28.8667,-90.4833,10.0,11.54,258.0,,'11111222,11111222,99999999' 
WAVCIS,ioos:station:WAVCIS:CSI06:1,2011-03-05T21:00:00Z,28.8667,-90.4833,10.0,5.554,294.0,,'11111222,11111222,99999999' 
WAVCIS,ioos:station:WAVCIS:CSI06:1,2011-03-05T22:00:00Z,28.8667,-90.4833,10.0,5.871,323.0,,'11111222,11111222,99999999' 
WAVCIS,ioos:station:WAVCIS:CSI06:1,2011-03-05T23:00:00Z,28.8667,-90.4833,10.0,8.47,283.0,,'11111222,11111222,99999999' 
WAVCIS,ioos:station:WAVCIS:CSI06:1,2011-03-06T00:00:00Z,28.8667,-90.4833,10.0,3.856,306.0,,'11111222,11111222,99999999' 
WAVCIS,ioos:station:WAVCIS:CSI06:1,2011-03-06T01:00:00Z,28.8667,-90.4833,10.0,6.493,273.0,,'11111222,11111222,99999999' 
WAVCIS,ioos:station:WAVCIS:CSI06:1,2011-03-06T02:00:00Z,28.8667,-90.4833,10.0,10.05,315.0,,'11111222,11111222,99999999' 
WAVCIS,ioos:station:WAVCIS:CSI06:1,2011-03-06T03:00:00Z,28.8667,-90.4833,10.0,7.65,357.0,,'11111222,11111222,99999999' 
WAVCIS,ioos:station:WAVCIS:CSI06:1,2011-03-06T04:00:00Z,28.8667,-90.4833,10.0,8.8,348.0,,'11111222,11111222,99999999' 
WAVCIS,ioos:station:WAVCIS:CSI06:1,2011-03-06T05:00:00Z,28.8667,-90.4833,10.0,8.27,347.0,,'11111222,11111222,99999999' 
WAVCIS,ioos:station:WAVCIS:CSI06:1,2011-03-06T06:00:00Z,28.8667,-90.4833,10.0,12.39,335.0,,'11111222,11111222,99999999' 
WAVCIS,ioos:station:WAVCIS:CSI06:1,2011-03-06T07:00:00Z,28.8667,-90.4833,10.0,9.8,334.0,,'11111222,11111222,99999999' 
WAVCIS,ioos:station:WAVCIS:CSI06:1,2011-03-06T08:00:00Z,28.8667,-90.4833,10.0,7.45,344.0,,'11111222,11111222,99999999' 
WAVCIS,ioos:station:WAVCIS:CSI06:1,2011-03-06T09:00:00Z,28.8667,-90.4833,10.0,6.405,347.0,,'11111222,11111222,99999999' 
WAVCIS,ioos:station:WAVCIS:CSI06:1,2011-03-06T10:00:00Z,28.8667,-90.4833,10.0,9.35,336.0,,'11111222,11111222,99999999' 
WAVCIS,ioos:station:WAVCIS:CSI06:1,2011-03-06T11:00:00Z,28.8667,-90.4833,10.0,7.3,359.0,,'11111222,11111222,99999999' 
WAVCIS,ioos:station:WAVCIS:CSI06:1,2011-03-06T12:00:00Z,28.8667,-90.4833,10.0,5.966,349.0,,'11111222,11111222,99999999' 
WAVCIS,ioos:station:WAVCIS:CSI06:1,2011-03-06T13:00:00Z,28.8667,-90.4833,10.0,7.86,3.0,,'11111222,11111222,99999999' 
WAVCIS,ioos:station:WAVCIS:CSI06:1,2011-03-06T14:00:00Z,28.8667,-90.4833,10.0,9.63,11.0,,'11111222,11111222,99999999' 
WAVCIS,ioos:station:WAVCIS:CSI06:1,2011-03-06T15:00:00Z,28.8667,-90.4833,10.0,9.77,16.0,,'11111222,11111222,99999999' 
WAVCIS,ioos:station:WAVCIS:CSI06:1,2011-03-06T16:00:00Z,28.8667,-90.4833,10.0,9.59,10.0,,'11111222,11111222,99999999' 
WAVCIS,ioos:station:WAVCIS:CSI06:1,2011-03-06T17:00:00Z,28.8667,-90.4833,10.0,9.92,13.0,,'11111222,11111222,99999999' 
WAVCIS,ioos:station:WAVCIS:CSI06:1,2011-03-06T18:00:00Z,28.8667,-90.4833,10.0,8.1,19.0,,'11111222,11111222,99999999' 
WAVCIS,ioos:station:WAVCIS:CSI06:1,2011-03-06T19:00:00Z,28.8667,-90.4833,10.0,4.34,7.0,,'11111222,11111222,99999999' 
WAVCIS,ioos:station:WAVCIS:CSI06:1,2011-03-06T20:00:00Z,28.8667,-90.4833,10.0,5.054,17.0,,'11111222,11111222,99999999' 
WAVCIS,ioos:station:WAVCIS:CSI06:1,2011-03-06T21:00:00Z,28.8667,-90.4833,10.0,3.784,17.0,,'11111222,11111222,99999999' 
WAVCIS,ioos:station:WAVCIS:CSI06:1,2011-03-06T22:00:00Z,28.8667,-90.4833,10.0,2.878,8.0,,'11111222,11111222,99999999' 
WAVCIS,ioos:station:WAVCIS:CSI06:1,2011-03-06T23:00:00Z,28.8667,-90.4833,10.0,2.966,25.0,,'11111222,11111222,99999999' 
WAVCIS,ioos:station:WAVCIS:CSI06:1,2011-03-07T00:00:00Z,28.8667,-90.4833,10.0,1.286,8.0,,'11111222,11111222,99999999' 
WAVCIS,ioos:station:WAVCIS:CSI06:1,2011-03-07T01:00:00Z,28.8667,-90.4833,10.0,3.379,21.0,,'11111222,11111222,99999999' 
WAVCIS,ioos:station:WAVCIS:CSI06:1,2011-03-07T02:00:00Z,28.8667,-90.4833,10.0,3.441,63.0,,'11111222,11111222,99999999' 
WAVCIS,ioos:station:WAVCIS:CSI06:1,2011-03-07T03:00:00Z,28.8667,-90.4833,10.0,4.21,33.0,,'11111222,11111222,99999999' 
WAVCIS,ioos:station:WAVCIS:CSI06:1,2011-03-07T04:00:00Z,28.8667,-90.4833,10.0,3.925,54.0,,'11111222,11111222,99999999' 
WAVCIS,ioos:station:WAVCIS:CSI06:1,2011-03-07T05:00:00Z,28.8667,-90.4833,10.0,4.253,72.0,,'11111222,11111222,99999999' 
WAVCIS,ioos:station:WAVCIS:CSI06:1,2011-03-07T06:00:00Z,28.8667,-90.4833,10.0,3.419,60.0,,'11111222,11111222,99999999' 
WAVCIS,ioos:station:WAVCIS:CSI06:1,2011-03-07T07:00:00Z,28.8667,-90.4833,10.0,3.193,47.0,,'11111222,11111222,99999999' 
WAVCIS,ioos:station:WAVCIS:CSI06:1,2011-03-07T08:00:00Z,28.8667,-90.4833,10.0,3.827,88.0,,'11111222,11111222,99999999' 
WAVCIS,ioos:station:WAVCIS:CSI06:1,2011-03-07T09:00:00Z,28.8667,-90.4833,10.0,4.074,105.0,,'11111222,11111222,99999999' 
WAVCIS,ioos:station:WAVCIS:CSI06:1,2011-03-07T10:00:00Z,28.8667,-90.4833,10.0,3.211,86.0,,'11111222,11111222,99999999' 
WAVCIS,ioos:station:WAVCIS:CSI06:1,2011-03-07T11:00:00Z,28.8667,-90.4833,10.0,4.396,76.0,,'11111222,11111222,99999999' 
WAVCIS,ioos:station:WAVCIS:CSI06:1,2011-03-07T12:00:00Z,28.8667,-90.4833,10.0,4.689,75.0,,'11111222,11111222,99999999' 
WAVCIS,ioos:station:WAVCIS:CSI06:1,2011-03-07T13:00:00Z,28.8667,-90.4833,10.0,6.066,97.0,,'11111222,11111222,99999999' 
WAVCIS,ioos:station:WAVCIS:CSI06:1,2011-03-07T14:00:00Z,28.8667,-90.4833,10.0,6.577,106.0,,'11111222,11111222,99999999' 
WAVCIS,ioos:station:WAVCIS:CSI06:1,2011-03-07T15:00:00Z,28.8667,-90.4833,10.0,6.839,80.0,,'11111222,11111222,99999999' 
WAVCIS,ioos:station:WAVCIS:CSI06:1,2011-03-07T16:00:00Z,28.8667,-90.4833,10.0,6.483,107.0,,'11111222,11111222,99999999' 
WAVCIS,ioos:station:WAVCIS:CSI06:1,2011-03-07T17:00:00Z,28.8667,-90.4833,10.0,4.66,113.0,,'11111222,11111222,99999999' 
WAVCIS,ioos:station:WAVCIS:CSI06:1,2011-03-07T18:00:00Z,28.8667,-90.4833,10.0,7.82,88.0,,'11111222,11111222,99999999' 
WAVCIS,ioos:station:WAVCIS:CSI06:1,2011-03-07T19:00:00Z,28.8667,-90.4833,10.0,9.14,75.0,,'11111222,11111222,99999999' 
WAVCIS,ioos:station:WAVCIS:CSI06:1,2011-03-07T20:00:00Z,28.8667,-90.4833,10.0,10.16,79.0,,'11111222,11111222,99999999' 
WAVCIS,ioos:station:WAVCIS:CSI06:1,2011-03-07T21:00:00Z,28.8667,-90.4833,10.0,10.0,77.0,,'11111222,11111222,99999999' 
WAVCIS,ioos:station:WAVCIS:CSI06:1,2011-03-07T22:00:00Z,28.8667,-90.4833,10.0,12.02,80.0,,'11111222,11111222,99999999' 
WAVCIS,ioos:station:WAVCIS:CSI06:1,2011-03-07T23:00:00Z,28.8667,-90.4833,10.0,11.95,75.0,,'11111222,11111222,99999999' 
WAVCIS,ioos:station:WAVCIS:CSI06:1,2011-03-08T00:00:00Z,28.8667,-90.4833,10.0,11.72,83.0,,'11111222,11111222,99999999' 
WAVCIS,ioos:station:WAVCIS:CSI06:1,2011-03-08T01:00:00Z,28.8667,-90.4833,10.0,10.74,86.0,,'11111222,11111222,99999999' 
WAVCIS,ioos:station:WAVCIS:CSI06:1,2011-03-08T02:00:00Z,28.8667,-90.4833,10.0,10.59,86.0,,'11111222,11111222,99999999' 
WAVCIS,ioos:station:WAVCIS:CSI06:1,2011-03-08T03:00:00Z,28.8667,-90.4833,10.0,10.66,112.0,,'11111222,11111222,99999999' 
WAVCIS,ioos:station:WAVCIS:CSI06:1,2011-03-08T04:00:00Z,28.8667,-90.4833,10.0,11.03,114.0,,'11111222,11111222,99999999' 
WAVCIS,ioos:station:WAVCIS:CSI06:1,2011-03-08T05:00:00Z,28.8667,-90.4833,10.0,10.99,113.0,,'11111222,11111222,99999999' 
WAVCIS,ioos:station:WAVCIS:CSI06:1,2011-03-08T06:00:00Z,28.8667,-90.4833,10.0,10.58,109.0,,'11111222,11111222,99999999' 
WAVCIS,ioos:station:WAVCIS:CSI06:1,2011-03-08T07:00:00Z,28.8667,-90.4833,10.0,10.02,107.0,,'11111222,11111222,99999999' 
WAVCIS,ioos:station:WAVCIS:CSI06:1,2011-03-08T08:00:00Z,28.8667,-90.4833,10.0,10.76,113.0,,'11111222,11111222,99999999' 
WAVCIS,ioos:station:WAVCIS:CSI06:1,2011-03-08T09:00:00Z,28.8667,-90.4833,10.0,10.27,117.0,,'11111222,11111222,99999999' 
WAVCIS,ioos:station:WAVCIS:CSI06:1,2011-03-08T10:00:00Z,28.8667,-90.4833,10.0,10.1,121.0,,'11111222,11111222,99999999' 
WAVCIS,ioos:station:WAVCIS:CSI06:1,2011-03-08T11:00:00Z,28.8667,-90.4833,10.0,9.9,125.0,,'11111222,11111222,99999999' 
WAVCIS,ioos:station:WAVCIS:CSI06:1,2011-03-08T12:00:00Z,28.8667,-90.4833,10.0,9.85,129.0,,'11111222,11111222,99999999' 
WAVCIS,ioos:station:WAVCIS:CSI06:1,2011-03-08T13:00:00Z,28.8667,-90.4833,10.0,10.75,125.0,,'11111222,11111222,99999999' 
WAVCIS,ioos:station:WAVCIS:CSI06:1,2011-03-08T14:00:00Z,28.8667,-90.4833,10.0,11.1,129.0,,'11111222,11111222,99999999' 
WAVCIS,ioos:station:WAVCIS:CSI06:1,2011-03-08T15:00:00Z,28.8667,-90.4833,10.0,9.99,128.0,,'11111222,11111222,99999999' 
WAVCIS,ioos:station:WAVCIS:CSI06:1,2011-03-08T16:00:00Z,28.8667,-90.4833,10.0,8.86,129.0,,'11111222,11111222,99999999' 
WAVCIS,ioos:station:WAVCIS:CSI06:1,2011-03-08T17:00:00Z,28.8667,-90.4833,10.0,9.81,122.0,,'11111222,11111222,99999999' 
WAVCIS,ioos:station:WAVCIS:CSI06:1,2011-03-08T18:00:00Z,28.8667,-90.4833,10.0,11.92,129.0,,'11111222,11111222,99999999' 
WAVCIS,ioos:station:WAVCIS:CSI06:1,2011-03-08T19:00:00Z,28.8667,-90.4833,10.0,11.92,130.0,,'11111222,11111222,99999999' 
WAVCIS,ioos:station:WAVCIS:CSI06:1,2011-03-08T20:00:00Z,28.8667,-90.4833,10.0,11.31,133.0,,'11111222,11111222,99999999' 
WAVCIS,ioos:station:WAVCIS:CSI06:1,2011-03-08T21:00:00Z,28.8667,-90.4833,10.0,10.75,138.0,,'11111222,11111222,99999999' 
WAVCIS,ioos:station:WAVCIS:CSI06:1,2011-03-08T22:00:00Z,28.8667,-90.4833,10.0,11.2,139.0,,'11111222,11111222,99999999' 
WAVCIS,ioos:station:WAVCIS:CSI06:1,2011-03-08T23:00:00Z,28.8667,-90.4833,10.0,10.88,140.0,,'11111222,11111222,99999999' 
WAVCIS,ioos:station:WAVCIS:CSI06:1,2011-03-09T00:00:00Z,28.8667,-90.4833,10.0,10.75,142.0,,'11111222,11111222,99999999' 
WAVCIS,ioos:station:WAVCIS:CSI06:1,2011-03-09T01:00:00Z,28.8667,-90.4833,10.0,9.48,139.0,,'11111222,11111222,99999999' 
WAVCIS,ioos:station:WAVCIS:CSI06:1,2011-03-09T02:00:00Z,28.8667,-90.4833,10.0,10.34,139.0,,'11111222,11111222,99999999' 
WAVCIS,ioos:station:WAVCIS:CSI06:1,2011-03-09T03:00:00Z,28.8667,-90.4833,10.0,9.82,138.0,,'11111222,11111222,99999999' 
WAVCIS,ioos:station:WAVCIS:CSI06:1,2011-03-09T04:00:00Z,28.8667,-90.4833,10.0,7.82,137.0,,'11111222,11111222,99999999' 
WAVCIS,ioos:station:WAVCIS:CSI06:1,2011-03-09T05:00:00Z,28.8667,-90.4833,10.0,11.52,138.0,,'11111222,11111222,99999999' 
WAVCIS,ioos:station:WAVCIS:CSI06:1,2011-03-09T06:00:00Z,28.8667,-90.4833,10.0,9.55,140.0,,'11111222,11111222,99999999' 